Home > Weather > Vaduz > Past weeks

Flag for Liechtenstein Past Weather in Vaduz, Liechtenstein — Yesterday and Last 2 Weeks

Now
52 °F

Fog.


Feels Like: 52 °F
Forecast: 56 / 71 °F
Wind: No wind

Location: Vaduz

Current Time: May 31, 2016 at 6:11:06 AM

Latest Report: May 31, 2016 at 5:00 AM


Visibility: 4 mi

Pressure: 29.87 "Hg

Humidity: 96%

Dew Point: 51 °F

Location of VaduzLocation

Past Weather in Vaduz — Graph

°F

Vaduz Temperature Yesterday

Maximum temperature yesterday: 70 °F (at 3:00 PM)
Minimum temperature yesterday: 56 °F (at 11:00 PM)
Average temperature yesterday: 59 °F

High & Low Weather Summary for the Past Weeks

 TemperatureHumidityPressure
High82 °F (May 22, 1:00 PM)96% (May 31, 4:00 AM)30.22 "Hg (May 31, 4:00 AM)
Low42 °F (May 16, 7:00 AM)23% (May 22, 1:00 PM)29.64 "Hg (May 29, 3:00 PM)
Average59 °F70%29.95 "Hg
* Reported May 16 5:00 AM — May 31 5:00 AM, Vaduz, Weather by CustomWeather, © 2016

Note: Actual official high and low records may vary slightly from our data, if they occured in-between our weather recording intervals... More about our weather records

Advertising

Vaduz Weather History for the Previous 24 Hours

Scroll right to see more
 ConditionsComfort  
Time TempWeatherWind HumidityBarometerVisibility
5:00 AM
Tue, May 31
52 °FFog.No wind96%29.87 "Hg4 mi
4:00 AM53 °FCool.2 mph96%29.85 "HgN/A
3:00 AM53 °FCool.1 mph95%29.85 "HgN/A
2:00 AM54 °FFog.2 mph94%29.83 "Hg4 mi
1:00 AM54 °FCool.3 mph93%29.85 "HgN/A
12:00 AM54 °FCool.2 mph94%29.86 "HgN/A
11:00 PM
Mon, May 30
56 °FFog.3 mph93%29.85 "Hg4 mi
10:00 PM57 °FCool.No wind94%29.85 "HgN/A
9:00 PM56 °FCool.1 mph93%29.83 "HgN/A
8:00 PM58 °FRain. Overcast.5 mph86%29.82 "Hg4 mi
7:00 PM58 °FCool.3 mph91%29.81 "HgN/A
6:00 PM60 °FCool.5 mph88%29.79 "HgN/A
5:00 PM62 °FLight rain. Overcast.5 mph78%29.77 "Hg4 mi
4:00 PM63 °FMild.2 mph76%29.75 "HgN/A
3:00 PM70 °FMild.1 mph59%29.71 "HgN/A
1:00 PM64 °FMild.5 mph70%29.74 "HgN/A
12:00 PM65 °FMild.5 mph66%29.73 "HgN/A
11:00 AM63 °FRain. Overcast.3 mph77%29.74 "Hg4 mi
10:00 AM60 °FCool.6 mph81%29.75 "HgN/A
9:00 AM59 °FCool.3 mph85%29.76 "HgN/A
8:00 AM57 °FRain. Overcast.2 mph91%29.76 "Hg2 mi
7:00 AM57 °FCool.3 mph90%29.77 "HgN/A
6:00 AM56 °FCool.2 mph91%29.76 "HgN/A
Weather by CustomWeather, © 2016

See weather overviewHow to use our weather pages